Location: Peebles
(55.6412°N, 3.1714°W)
Time: 11:11:14
(UTC+01:00)

IRIDIUM 33 DEB - Pass Details

Date: 01 July 2022
Orbit: 580 x 634 km, 86.4° (Epoch: 16 August)

Event Time Altitude Azimuth Distance (km) Brightness Sun altitude
Rises 02:38:03 0° 358° (N) 2,818 ? -9.3°
Maximum altitude 02:44:21 43° 78° (ENE) 823 ? -9.1°
Drops below altitude 10° 02:48:21 10° 151° (SSE) 1,907 ? -8.8°
Enters shadow 02:50:00 - 157° (SSE) 2,555 ? -8.8°
